EWG9NU LFMN-EDDK

Flight info

Callsign EWG9NU
Flight time 1h 25m
Altitude 36000
Route BASIP DCT ANAKI DCT DEVOX DCT DESIP DCT ABESI DCT LADOL T163 KOVAN T844 ASKIK T840 GULKO GULKO1F
Aircraft A321/M-SDE2E3FGIJ1LORWXY/HB1

Departure

Time 2026-04-21 19:15
Airport Nice-Côte d'Azur Airport (LFMN)

Arrival

Time 2026-04-21 20:40
Airport Cologne Bonn Airport (EDDK)
Time Latitude Longitude Altitude Speed Heading
2026-04-21 18:40 43.66429 7.21327 21 ft 0 kts 350°
2026-04-21 19:03 43.66414 7.21330 21 ft 4 kts 351°
2026-04-21 19:03 43.66387 7.21336 21 ft 4 kts 351°
2026-04-21 19:03 43.66365 7.21340 23 ft 4 kts
2026-04-21 19:03 43.66345 7.21325 21 ft 4 kts 59°
2026-04-21 19:04 43.66336 7.21295 21 ft 1 kts 81°
2026-04-21 19:04 43.66336 7.21293 21 ft 0 kts 81°
2026-04-21 19:07 43.66336 7.21294 21 ft 0 kts 81°
2026-04-21 19:07 43.66339 7.21317 21 ft 5 kts 83°
2026-04-21 19:07 43.66319 7.21360 27 ft 6 kts 154°
2026-04-21 19:08 43.66282 7.21339 22 ft 7 kts 225°
2026-04-21 19:08 43.66247 7.21290 21 ft 8 kts 225°
2026-04-21 19:08 43.66205 7.21234 21 ft 9 kts 225°
2026-04-21 19:08 43.66158 7.21169 21 ft 10 kts 225°
2026-04-21 19:09 43.66106 7.21096 21 ft 11 kts 225°
2026-04-21 19:09 43.66040 7.21051 21 ft 11 kts 177°
2026-04-21 19:09 43.65971 7.21077 24 ft 9 kts 147°
2026-04-21 19:09 43.65912 7.21085 24 ft 10 kts 212°
2026-04-21 19:10 43.65861 7.21018 21 ft 11 kts 224°
2026-04-21 19:10 43.65801 7.20936 21 ft 13 kts 225°
2026-04-21 19:10 43.65735 7.20845 21 ft 14 kts 225°
2026-04-21 19:10 43.65664 7.20747 21 ft 15 kts 225°
2026-04-21 19:11 43.65587 7.20642 21 ft 16 kts 225°
2026-04-21 19:11 43.65505 7.20530 21 ft 17 kts 225°
2026-04-21 19:11 43.65419 7.20411 21 ft 18 kts 225°
2026-04-21 19:11 43.65345 7.20311 21 ft 12 kts 219°
2026-04-21 19:12 43.65263 7.20315 21 ft 13 kts 145°
2026-04-21 19:12 43.65194 7.20405 22 ft 14 kts 135°
2026-04-21 19:12 43.65122 7.20494 21 ft 14 kts 150°
2026-04-21 19:12 43.65023 7.20494 22 ft 15 kts 205°
2026-04-21 19:13 43.64943 7.20396 22 ft 16 kts 225°
2026-04-21 19:13 43.64862 7.20285 21 ft 17 kts 225°
2026-04-21 19:13 43.64795 7.20196 22 ft 9 kts 215°
2026-04-21 19:13 43.64745 7.20185 22 ft 7 kts 166°
2026-04-21 19:14 43.64710 7.20221 23 ft 6 kts 136°
2026-04-21 19:14 43.64694 7.20267 23 ft 6 kts 84°
2026-04-21 19:14 43.64721 7.20313 24 ft 10 kts 45°
2026-04-21 19:14 43.64912 7.20576 24 ft 75 kts 45°
2026-04-21 19:15 43.65447 7.21308 27 ft 138 kts 45°
2026-04-21 19:15 43.66245 7.22411 215 ft 170 kts 46°
2026-04-21 19:15 43.66858 7.23730 913 ft 168 kts 79°
2026-04-21 19:15 43.66687 7.25302 1583 ft 169 kts 119°
2026-04-21 19:16 43.65936 7.26550 2291 ft 169 kts 132°
2026-04-21 19:16 43.65140 7.27733 2911 ft 168 kts 132°
2026-04-21 19:16 43.64340 7.28929 3387 ft 176 kts 133°
2026-04-21 19:16 43.63505 7.30301 3600 ft 198 kts 120°
2026-04-21 19:17 43.63671 7.34245 4208 ft 229 kts 63°
2026-04-21 19:17 43.64482 7.36270 4353 ft 253 kts 60°
2026-04-21 19:17 43.65392 7.38460 4738 ft 270 kts 59°
2026-04-21 19:18 43.66343 7.40725 5374 ft 275 kts 58°
2026-04-21 19:18 43.67314 7.43035 6025 ft 281 kts 58°
2026-04-21 19:18 43.68305 7.45396 6640 ft 287 kts 57°
2026-04-21 19:18 43.69309 7.47795 7285 ft 291 kts 57°
2026-04-21 19:19 43.70324 7.50228 7960 ft 294 kts 57°
2026-04-21 19:19 43.71344 7.52688 8638 ft 296 kts 56°
2026-04-21 19:19 43.72372 7.55173 9327 ft 299 kts 56°
2026-04-21 19:19 43.73410 7.57681 9991 ft 302 kts 56°
2026-04-21 19:20 43.74483 7.60268 10261 ft 321 kts 56°
2026-04-21 19:20 43.75631 7.63031 10388 ft 342 kts 57°
2026-04-21 19:20 43.76843 7.65957 10609 ft 357 kts 57°
2026-04-21 19:20 43.78085 7.68968 11116 ft 363 kts 56°
2026-04-21 19:21 43.79340 7.72019 11672 ft 367 kts 56°
2026-04-21 19:21 43.80608 7.75103 12224 ft 371 kts 56°
2026-04-21 19:21 43.82044 7.78052 12748 ft 368 kts 43°
2026-04-21 19:21 43.84005 7.80258 13290 ft 361 kts 24°
2026-04-21 19:22 43.86235 7.81865 13810 ft 363 kts 21°
2026-04-21 19:22 43.88497 7.83456 14353 ft 366 kts 21°
2026-04-21 19:22 43.90772 7.85056 14994 ft 368 kts 21°
2026-04-21 19:22 43.93064 7.86674 15559 ft 371 kts 21°
2026-04-21 19:23 43.95371 7.88310 16099 ft 374 kts 21°
2026-04-21 19:23 43.97656 7.89935 16665 ft 374 kts 21°
2026-04-21 19:23 44.00009 7.91612 17127 ft 376 kts 21°
2026-04-21 19:23 44.02307 7.93253 17589 ft 377 kts 21°
2026-04-21 19:24 44.04646 7.94923 18100 ft 379 kts 21°
2026-04-21 19:24 44.07001 7.96600 18554 ft 381 kts 21°
2026-04-21 19:24 44.09372 7.98286 18898 ft 384 kts 20°
2026-04-21 19:24 44.11761 7.99988 19256 ft 387 kts 20°
2026-04-21 19:25 44.14157 8.01700 19683 ft 388 kts 20°
2026-04-21 19:25 44.16562 8.03424 20058 ft 389 kts 20°
2026-04-21 19:25 44.18977 8.05158 20422 ft 392 kts 20°
2026-04-21 19:25 44.21411 8.06907 20832 ft 395 kts 20°
2026-04-21 19:26 44.23858 8.08664 21208 ft 396 kts 21°
2026-04-21 19:26 44.26315 8.10427 21538 ft 398 kts 20°
2026-04-21 19:26 44.28784 8.12198 21887 ft 401 kts 20°
2026-04-21 19:26 44.31273 8.13989 22285 ft 404 kts 20°
2026-04-21 19:27 44.33775 8.15796 22723 ft 406 kts 20°
2026-04-21 19:27 44.36291 8.17615 23130 ft 408 kts 20°
2026-04-21 19:27 44.38819 8.19441 23519 ft 410 kts 20°
2026-04-21 19:27 44.41361 8.21276 23863 ft 412 kts 20°
2026-04-21 19:28 44.43914 8.23120 24222 ft 414 kts 20°
2026-04-21 19:28 44.46481 8.24978 24540 ft 416 kts 20°
2026-04-21 19:28 44.49056 8.26846 24896 ft 417 kts 20°
2026-04-21 19:28 44.51638 8.28722 25237 ft 419 kts 20°
2026-04-21 19:29 44.54192 8.30581 25583 ft 420 kts 20°
2026-04-21 19:29 44.56791 8.32474 25881 ft 421 kts 20°
2026-04-21 19:29 44.59399 8.34374 26199 ft 423 kts 20°
2026-04-21 19:29 44.62010 8.36278 26532 ft 425 kts 19°
2026-04-21 19:30 44.64639 8.38194 26873 ft 426 kts 19°
2026-04-21 19:30 44.67278 8.40115 27195 ft 428 kts 19°
2026-04-21 19:30 44.69928 8.42043 27520 ft 430 kts 19°
2026-04-21 19:30 44.72587 8.43983 27814 ft 431 kts 19°
2026-04-21 19:31 44.75255 8.45937 28133 ft 433 kts 19°
2026-04-21 19:31 44.77998 8.47566 28402 ft 423 kts
2026-04-21 19:31 44.80828 8.48712 28697 ft 424 kts
2026-04-21 19:31 44.83671 8.49848 28989 ft 426 kts
2026-04-21 19:32 44.86526 8.50987 29271 ft 427 kts
2026-04-21 19:32 44.89391 8.52130 29586 ft 428 kts
2026-04-21 19:32 44.92263 8.53279 29866 ft 430 kts
2026-04-21 19:32 44.95143 8.54437 30097 ft 431 kts
2026-04-21 19:33 44.97089 8.55222 30225 ft 432 kts
2026-04-21 19:33 45.00916 8.56769 30574 ft 432 kts
2026-04-21 19:33 45.03799 8.57942 30868 ft 430 kts
2026-04-21 19:33 45.06673 8.59113 31180 ft 429 kts
2026-04-21 19:34 45.09542 8.60279 31460 ft 429 kts
2026-04-21 19:34 45.12406 8.61443 31730 ft 428 kts
2026-04-21 19:34 45.15265 8.62606 32001 ft 427 kts
2026-04-21 19:34 45.18119 8.63765 32261 ft 426 kts
2026-04-21 19:35 45.20968 8.64922 32526 ft 425 kts
2026-04-21 19:35 45.26651 8.67227 33094 ft 424 kts
2026-04-21 19:35 45.29489 8.68384 33318 ft 424 kts
2026-04-21 19:36 45.32328 8.69543 33568 ft 424 kts
2026-04-21 19:36 45.35165 8.70702 33808 ft 424 kts
2026-04-21 19:36 45.38000 8.71859 34038 ft 424 kts
2026-04-21 19:36 45.40827 8.73015 34228 ft 424 kts
2026-04-21 19:37 45.43662 8.74177 34407 ft 424 kts
2026-04-21 19:37 45.46499 8.75346 34602 ft 425 kts
2026-04-21 19:37 45.49340 8.76517 34762 ft 425 kts
2026-04-21 19:37 45.52185 8.77691 34932 ft 426 kts
2026-04-21 19:38 45.55032 8.78865 35097 ft 426 kts
2026-04-21 19:38 45.57882 8.80041 35295 ft 427 kts
2026-04-21 19:38 45.59773 8.80822 35402 ft 427 kts
2026-04-21 19:38 45.63589 8.82398 35649 ft 427 kts
2026-04-21 19:39 45.66445 8.83582 35814 ft 427 kts
2026-04-21 19:39 45.69301 8.84767 35964 ft 428 kts
2026-04-21 19:39 45.72161 8.85950 35994 ft 428 kts
2026-04-21 19:40 45.77873 8.88319 36000 ft 427 kts
2026-04-21 19:40 45.83575 8.90693 36016 ft 428 kts
2026-04-21 19:41 45.89293 8.93079 36007 ft 428 kts
2026-04-21 19:41 45.95015 8.95465 36002 ft 428 kts
2026-04-21 19:42 46.00696 8.97843 35999 ft 428 kts
2026-04-21 19:42 46.06425 9.00258 36030 ft 429 kts
2026-04-21 19:43 46.12148 9.02671 36016 ft 429 kts
2026-04-21 19:43 46.17925 9.04169 36013 ft 415 kts 354°
2026-04-21 19:44 46.23672 9.03933 36046 ft 413 kts 351°
2026-04-21 19:44 46.29411 9.03683 36031 ft 413 kts 352°
2026-04-21 19:45 46.35161 9.03447 36030 ft 413 kts 352°
2026-04-21 19:45 46.40911 9.03208 36053 ft 414 kts 351°
2026-04-21 19:46 46.46667 9.02959 36062 ft 413 kts 351°
2026-04-21 19:46 46.52427 9.02702 36064 ft 414 kts 351°
2026-04-21 19:47 46.58179 9.02439 36071 ft 415 kts 352°
2026-04-21 19:47 46.63944 9.02181 36077 ft 414 kts 352°
2026-04-21 19:48 46.69678 9.01945 36070 ft 412 kts 352°
2026-04-21 19:48 46.75425 9.01696 36089 ft 413 kts 352°
2026-04-21 19:49 46.81173 9.01446 36109 ft 413 kts 352°
2026-04-21 19:49 46.85954 9.01237 36134 ft 414 kts 352°
2026-04-21 19:50 46.91716 9.00982 36119 ft 414 kts 352°
2026-04-21 19:50 46.98411 9.00680 36131 ft 414 kts 352°
2026-04-21 19:51 47.03240 9.00461 36164 ft 414 kts 352°
2026-04-21 19:51 47.08997 9.00212 36146 ft 414 kts 353°
2026-04-21 19:52 47.14717 8.99955 36150 ft 415 kts 352°
2026-04-21 19:52 47.20491 8.99699 36157 ft 415 kts 352°
2026-04-21 19:53 47.26268 8.99437 36179 ft 416 kts 353°
2026-04-21 19:53 47.32062 8.99180 36168 ft 417 kts 353°
2026-04-21 19:54 47.37901 8.98915 36159 ft 417 kts 353°
2026-04-21 19:54 47.43673 8.98655 36156 ft 418 kts 353°
2026-04-21 19:55 47.49522 8.98395 36167 ft 419 kts 353°
2026-04-21 19:55 47.55353 8.98131 36164 ft 420 kts 353°
2026-04-21 19:56 47.61159 8.97871 36163 ft 420 kts 353°
2026-04-21 19:56 47.67014 8.97608 36192 ft 421 kts 354°
2026-04-21 19:57 47.72872 8.97336 36179 ft 422 kts 354°
2026-04-21 19:57 47.78752 8.97072 36173 ft 423 kts 354°
2026-04-21 19:58 47.84644 8.96804 36175 ft 424 kts 354°
2026-04-21 19:58 47.90542 8.96533 36191 ft 424 kts 354°
2026-04-21 19:59 47.96447 8.96258 36186 ft 425 kts 354°
2026-04-21 19:59 48.02366 8.95987 36188 ft 426 kts 354°
2026-04-21 20:00 48.08287 8.95716 36184 ft 425 kts 354°
2026-04-21 20:00 48.14211 8.95446 36209 ft 426 kts 354°
2026-04-21 20:01 48.20156 8.95860 36204 ft 430 kts
2026-04-21 20:01 48.26110 8.96771 36207 ft 430 kts
2026-04-21 20:02 48.32074 8.97668 36221 ft 431 kts
2026-04-21 20:02 48.38048 8.98572 36209 ft 432 kts
2026-04-21 20:03 48.44028 8.99492 36211 ft 432 kts
2026-04-21 20:03 48.50008 9.00408 36214 ft 432 kts
2026-04-21 20:04 48.55999 9.01313 36216 ft 433 kts
2026-04-21 20:04 48.61992 9.02221 36217 ft 433 kts
2026-04-21 20:05 48.67980 9.03392 36220 ft 434 kts
2026-04-21 20:05 48.73944 9.04906 36235 ft 435 kts
2026-04-21 20:06 48.79918 9.06438 36223 ft 435 kts
2026-04-21 20:06 48.85911 9.07721 36218 ft 433 kts 359°
2026-04-21 20:07 48.91814 9.06622 36217 ft 426 kts 341°
2026-04-21 20:07 48.97404 9.03815 36223 ft 426 kts 340°
2026-04-21 20:08 49.03082 9.00959 36219 ft 427 kts 340°
2026-04-21 20:08 49.08693 8.98150 36217 ft 428 kts 340°
2026-04-21 20:09 49.14352 8.95289 36219 ft 428 kts 340°
2026-04-21 20:09 49.20005 8.92410 36234 ft 429 kts 340°
2026-04-21 20:10 49.25673 8.89522 36226 ft 429 kts 340°
2026-04-21 20:10 49.31344 8.86626 36237 ft 430 kts 341°
2026-04-21 20:11 49.37021 8.83742 36252 ft 430 kts 340°
2026-04-21 20:11 49.42706 8.80922 36264 ft 430 kts 342°
2026-04-21 20:12 49.48472 8.78415 36261 ft 431 kts 344°
2026-04-21 20:12 49.54261 8.75980 36260 ft 431 kts 343°
2026-04-21 20:13 49.60043 8.73475 36260 ft 432 kts 343°
2026-04-21 20:13 49.65821 8.70930 36267 ft 432 kts 343°
2026-04-21 20:14 49.71602 8.68375 36258 ft 432 kts 343°
2026-04-21 20:14 49.77380 8.65809 36067 ft 432 kts 343°
2026-04-21 20:14 49.80265 8.64522 35826 ft 431 kts 343°
2026-04-21 20:15 49.83139 8.63238 35279 ft 430 kts 343°
2026-04-21 20:15 49.86015 8.61957 34625 ft 430 kts 344°
2026-04-21 20:15 49.88890 8.60677 34059 ft 428 kts 345°
2026-04-21 20:15 49.91742 8.59407 33543 ft 424 kts 345°
2026-04-21 20:16 49.94526 8.58166 33115 ft 419 kts 345°
2026-04-21 20:16 49.97315 8.56923 32645 ft 415 kts 345°
2026-04-21 20:16 50.00073 8.55693 32169 ft 410 kts 345°
2026-04-21 20:16 50.02795 8.54474 31703 ft 406 kts 346°
2026-04-21 20:17 50.05492 8.53257 31230 ft 402 kts 345°
2026-04-21 20:17 50.08149 8.51959 30751 ft 399 kts 344°
2026-04-21 20:17 50.10765 8.50570 30269 ft 396 kts 343°
2026-04-21 20:17 50.13350 8.49141 29751 ft 392 kts 344°
2026-04-21 20:18 50.15042 8.48196 29445 ft 389 kts 344°
2026-04-21 20:18 50.18421 8.46308 28829 ft 382 kts 344°
2026-04-21 20:18 50.20911 8.44935 28380 ft 378 kts 344°
2026-04-21 20:18 50.23381 8.43585 27947 ft 374 kts 345°
2026-04-21 20:19 50.25824 8.42258 27512 ft 370 kts 345°
2026-04-21 20:19 50.28235 8.40919 27111 ft 367 kts 341°
2026-04-21 20:19 50.30510 8.39118 26691 ft 367 kts 332°
2026-04-21 20:19 50.32662 8.36981 26284 ft 365 kts 331°
2026-04-21 20:20 50.34798 8.34849 25891 ft 363 kts 331°
2026-04-21 20:20 50.36924 8.32725 25480 ft 363 kts 332°
2026-04-21 20:20 50.39023 8.30630 25122 ft 362 kts 332°
2026-04-21 20:20 50.41142 8.28517 24748 ft 360 kts 332°
2026-04-21 20:21 50.43271 8.26385 24362 ft 357 kts 332°
2026-04-21 20:21 50.45360 8.24290 23973 ft 355 kts 332°
2026-04-21 20:21 50.47435 8.22208 23556 ft 353 kts 332°
2026-04-21 20:21 50.49467 8.20163 23151 ft 350 kts 332°
2026-04-21 20:22 50.51513 8.18105 22758 ft 348 kts 332°
2026-04-21 20:22 50.55562 8.14028 21957 ft 343 kts 332°
2026-04-21 20:22 50.57562 8.12008 21562 ft 341 kts 332°
2026-04-21 20:23 50.59546 8.10009 21156 ft 338 kts 332°
2026-04-21 20:23 50.61521 8.08019 20751 ft 337 kts 332°
2026-04-21 20:23 50.63488 8.06033 20346 ft 335 kts 332°
2026-04-21 20:23 50.65442 8.04055 19942 ft 333 kts 332°
2026-04-21 20:24 50.67382 8.02086 19541 ft 331 kts 332°
2026-04-21 20:24 50.69308 8.00126 19143 ft 328 kts 331°
2026-04-21 20:24 50.71221 7.98174 18741 ft 326 kts 331°
2026-04-21 20:24 50.73120 7.96233 18293 ft 324 kts 331°
2026-04-21 20:25 50.74909 7.94072 17910 ft 325 kts 321°
2026-04-21 20:25 50.76420 7.91407 17510 ft 327 kts 310°
2026-04-21 20:25 50.77668 7.88399 17110 ft 327 kts 306°
2026-04-21 20:25 50.78889 7.85385 16698 ft 324 kts 306°
2026-04-21 20:26 50.80104 7.82394 16315 ft 322 kts 306°
2026-04-21 20:26 50.81311 7.79423 15926 ft 320 kts 306°
2026-04-21 20:26 50.82509 7.76470 15540 ft 318 kts 306°
2026-04-21 20:26 50.83696 7.73543 15157 ft 316 kts 306°
2026-04-21 20:27 50.84880 7.70622 14781 ft 314 kts 306°
2026-04-21 20:27 50.86050 7.67730 14407 ft 312 kts 306°
2026-04-21 20:27 50.87215 7.64844 14030 ft 310 kts 306°
2026-04-21 20:27 50.88371 7.61979 13633 ft 308 kts 306°
2026-04-21 20:28 50.89521 7.59128 13267 ft 306 kts 306°
2026-04-21 20:28 50.90663 7.56287 12900 ft 305 kts 306°
2026-04-21 20:28 50.91795 7.53461 12534 ft 303 kts 306°
2026-04-21 20:28 50.92926 7.50644 12176 ft 302 kts 306°
2026-04-21 20:29 50.94055 7.47839 11821 ft 301 kts 306°
2026-04-21 20:29 50.95178 7.45043 11468 ft 300 kts 306°
2026-04-21 20:29 50.96297 7.42255 11076 ft 301 kts 306°
2026-04-21 20:29 50.97426 7.39444 10579 ft 303 kts 306°
2026-04-21 20:30 50.98556 7.36618 10112 ft 304 kts 305°
2026-04-21 20:30 50.99686 7.33779 9590 ft 304 kts 305°
2026-04-21 20:30 51.00816 7.30934 9082 ft 305 kts 305°
2026-04-21 20:30 51.01944 7.28097 8555 ft 301 kts 304°
2026-04-21 20:31 51.03053 7.25308 7985 ft 296 kts 304°
2026-04-21 20:31 51.04145 7.22564 7423 ft 291 kts 304°
2026-04-21 20:31 51.05215 7.19868 6869 ft 287 kts 304°
2026-04-21 20:31 51.06253 7.17242 6579 ft 274 kts 303°
2026-04-21 20:32 51.07171 7.14650 6313 ft 265 kts 294°
2026-04-21 20:32 51.07674 7.11874 6058 ft 258 kts 279°
2026-04-21 20:32 51.07744 7.09065 5799 ft 251 kts 266°
2026-04-21 20:32 51.07637 7.06330 5531 ft 246 kts 266°
2026-04-21 20:33 51.07537 7.03627 5274 ft 244 kts 266°
2026-04-21 20:33 51.07441 7.00933 5023 ft 242 kts 266°
2026-04-21 20:33 51.07155 6.98352 4770 ft 234 kts 250°
2026-04-21 20:33 51.06479 6.96060 4490 ft 226 kts 234°
2026-04-21 20:34 51.05508 6.94172 4263 ft 215 kts 223°
2026-04-21 20:34 51.04374 6.92836 4071 ft 192 kts 197°
2026-04-21 20:34 51.03157 6.92465 4049 ft 167 kts 173°
2026-04-21 20:34 51.02080 6.92819 3943 ft 153 kts 151°
2026-04-21 20:35 51.01217 6.93712 3795 ft 146 kts 132°
2026-04-21 20:35 51.00473 6.94801 3621 ft 145 kts 132°
2026-04-21 20:35 50.99732 6.95883 3431 ft 144 kts 132°
2026-04-21 20:35 50.98994 6.96961 3237 ft 144 kts 132°
2026-04-21 20:36 50.98509 6.97670 3108 ft 144 kts 132°
2026-04-21 20:36 50.97775 6.98742 2913 ft 143 kts 131°
2026-04-21 20:36 50.97043 6.99810 2718 ft 143 kts 131°
2026-04-21 20:36 50.96313 7.00875 2520 ft 143 kts 131°
2026-04-21 20:37 50.95582 7.01942 2332 ft 142 kts 131°
2026-04-21 20:37 50.94855 7.03001 2136 ft 142 kts 131°
2026-04-21 20:37 50.94131 7.04055 1954 ft 142 kts 131°
2026-04-21 20:37 50.93402 7.05117 1748 ft 143 kts 131°
2026-04-21 20:38 50.92684 7.06161 1529 ft 137 kts 132°
2026-04-21 20:38 50.91987 7.07176 1357 ft 136 kts 132°
2026-04-21 20:38 50.91283 7.08200 1145 ft 140 kts 134°
2026-04-21 20:38 50.90551 7.09263 964 ft 144 kts 134°
2026-04-21 20:39 50.89809 7.10341 788 ft 145 kts 134°
2026-04-21 20:39 50.89064 7.11421 597 ft 146 kts 134°
2026-04-21 20:39 50.88309 7.12525 374 ft 149 kts 135°
2026-04-21 20:39 50.87558 7.13616 240 ft 136 kts 136°
2026-04-21 20:40 50.86984 7.14453 256 ft 91 kts 137°
2026-04-21 20:40 50.86586 7.15024 276 ft 51 kts 138°
2026-04-21 20:40 50.86402 7.15247 284 ft 23 kts 153°
2026-04-21 20:40 50.86299 7.15306 287 ft 10 kts 165°
2026-04-21 20:41 50.86235 7.15329 288 ft 10 kts 167°
2026-04-21 20:41 50.86168 7.15353 291 ft 10 kts 167°
2026-04-21 20:41 50.86096 7.15341 290 ft 12 kts 205°
2026-04-21 20:41 50.86046 7.15241 293 ft 13 kts 254°
2026-04-21 20:42 50.86071 7.15099 291 ft 15 kts 310°
2026-04-21 20:42 50.86158 7.14971 285 ft 19 kts 318°
2026-04-21 20:42 50.86264 7.14817 280 ft 23 kts 317°
2026-04-21 20:42 50.86394 7.14630 272 ft 27 kts 317°
2026-04-21 20:43 50.86542 7.14416 263 ft 26 kts 317°
2026-04-21 20:43 50.86660 7.14242 260 ft 20 kts 317°
2026-04-21 20:43 50.86775 7.14124 255 ft 19 kts 329°
2026-04-21 20:43 50.86880 7.13985 254 ft 21 kts 317°
2026-04-21 20:44 50.87004 7.13806 243 ft 27 kts 317°
2026-04-21 20:44 50.87151 7.13594 238 ft 29 kts 317°
2026-04-21 20:44 50.87300 7.13378 232 ft 30 kts 317°
2026-04-21 20:44 50.87442 7.13172 232 ft 24 kts 317°
2026-04-21 20:45 50.87569 7.12989 232 ft 25 kts 317°
2026-04-21 20:45 50.87684 7.12821 232 ft 20 kts 317°
2026-04-21 20:45 50.87784 7.12677 232 ft 15 kts 317°
2026-04-21 20:45 50.87871 7.12611 232 ft 14 kts 360°
2026-04-21 20:46 50.87966 7.12609 234 ft 14 kts 339°
2026-04-21 20:46 50.88030 7.12493 233 ft 15 kts 300°
2026-04-21 20:46 50.88089 7.12345 233 ft 16 kts 305°
2026-04-21 20:46 50.88141 7.12230 234 ft 10 kts 306°
2026-04-21 20:47 50.88176 7.12156 233 ft 5 kts 313°
2026-04-21 20:47 50.88212 7.12160 232 ft 6 kts 27°
2026-04-21 20:47 50.88237 7.12187 234 ft 5 kts 36°
2026-04-21 20:47 50.88248 7.12200 233 ft 0 kts 36°